PST,Max TemperatureF,Mean TemperatureF,Min TemperatureF,Max Dew PointF,MeanDew PointF,Min DewpointF,Max Humidity, Mean Humidity, Min Humidity, Max Sea Level PressureIn, Mean Sea Level PressureIn, Min Sea Level PressureIn, Max VisibilityMiles, Mean VisibilityMiles, Min VisibilityMiles, Max Wind SpeedMPH, Mean Wind SpeedMPH, Max Gust SpeedMPH,PrecipitationIn, CloudCover, Events, WindDirDegrees
2012-12-1,63,60,56,58,56,53,93,89,84,30.10,30.06,30.01,10,9,2,14,9,,0.18,7,Rain,117
2012-12-2,63,60,56,59,55,53,93,83,72,30.08,30.00,29.92,10,6,1,24,13,32,0.40,8,Rain,118
2012-12-3,63,57,51,52,49,46,93,77,60,30.22,30.16,30.09,10,9,2,9,4,12,0.00,6,,307
2012-12-4,59,55,51,54,52,48,100,90,80,30.27,30.22,30.19,6,2,0,10,3,15,0.00,2,Fog,114
2012-12-5,60,56,51,55,53,50,100,86,72,30.22,30.15,30.08,10,4,1,13,4,15,0.12,6,Rain,248
2012-12-6,58,57,55,55,53,49,100,90,80,30.12,30.08,30.05,10,6,2,15,9,18,T,8,Rain,308
2012-12-7,62,57,52,50,47,43,89,75,60,30.15,30.10,30.07,10,8,0,9,3,10,0.00,4,Fog,296
2012-12-8,52,46,39,49,45,38,100,95,89,30.10,30.07,30.03,4,1,0,9,2,12,0.01,4,Fog,289
2012-12-9,54,50,45,48,44,39,100,92,83,30.23,30.17,30.10,5,2,0,7,2,9,0.00,2,Fog,17
2012-12-10,61,49,36,48,41,36,100,80,60,30.25,30.20,30.14,7,3,0,6,1,10,0.01,0,Fog,84
2012-12-11,61,51,41,48,44,40,100,78,55,30.14,30.00,29.86,6,2,0,13,5,15,0.01,0,Fog,107
2012-12-12,51,45,39,49,45,39,100,93,86,29.93,29.89,29.85,10,6,0,13,4,15,0.22,7,Fog-Rain,354
2012-12-13,52,44,35,45,41,35,100,83,66,29.92,29.89,29.83,10,7,1,10,4,14,0.00,6,,315
2012-12-14,50,40,30,41,35,29,100,83,66,30.03,29.90,29.85,10,4,0,7,2,12,T,3,Fog,119
2012-12-15,50,41,31,43,38,31,100,81,61,30.13,30.08,30.03,10,4,0,8,3,10,0.00,4,Fog,199
2012-12-16,56,46,35,43,38,34,92,70,47,30.15,30.11,30.09,10,8,3,10,5,13,0.00,4,,104
2012-12-17,63,57,50,50,47,42,100,82,64,30.12,30.04,29.95,10,9,5,21,11,24,0.04,7,Rain,121
2012-12-18,51,44,37,48,37,27,93,67,41,30.14,30.00,29.96,10,10,10,26,14,31,0.01,4,Snow,312
2012-12-19,49,38,27,32,30,26,92,71,50,30.35,30.28,30.14,10,10,7,13,5,16,0.00,0,Snow,90
2012-12-20,58,43,27,33,27,22,92,58,24,30.28,30.17,30.09,10,10,8,15,7,20,T,0,Snow,120
2012-12-21,58,47,35,44,32,26,70,53,36,30.07,30.03,29.98,10,10,7,17,11,22,0.03,3,Rain,113
2012-12-22,55,49,42,48,44,39,93,80,66,30.15,30.05,29.98,10,8,1,26,11,32,0.35,7,Rain,102
2012-12-23,52,47,41,50,46,39,100,93,86,30.17,30.08,29.95,10,6,0,24,11,31,0.25,7,Fog-Rain,128
2012-12-24,55,49,43,48,44,40,100,78,55,30.19,30.11,30.00,10,6,0,17,7,22,0.00,3,Fog,313
2012-12-25,50,47,43,46,44,42,100,90,80,30.20,30.09,29.91,10,4,0,21,3,24,0.36,8,Fog-Rain,113
2012-12-26,55,49,42,45,43,41,100,81,61,30.08,29.99,29.90,10,9,3,15,5,18,0.29,7,Rain,186
2012-12-27,51,43,34,45,40,34,100,83,66,30.21,30.12,30.08,10,6,0,16,4,39,0.00,3,Fog,314
2012-12-28,50,41,31,41,36,30,100,83,66,30.23,30.17,30.06,10,5,0,9,3,14,0.00,3,Fog,111
2012-12-29,53,45,37,42,39,36,93,74,54,30.09,30.05,30.00,10,5,2,8,4,,T,5,Rain,339
2012-12-30,52,44,35,40,37,32,100,80,59,30.17,30.07,30.02,10,7,2,16,5,21,0.00,3,,294
2012-12-31,51,40,28,38,33,28,92,71,50,30.31,30.26,30.18,10,9,3,10,3,13,0.00,1,,272